World > North America > United States > New York

Hourly Purling, NY Regional Weather

Feedback E-mail the Weather

Latest News

Purling, NY Weather Maps

°F °C°F °C
Purling Weather Map
UTC Time: 5/26/2022, 07:17
Your Time:

Purling, NY Regional Weather

Expires:202205260800;;596393
ASUS41 KALY 260710
RWRALY

NEW YORK STATE HOURLY WEATHER ROUNDUP
NATIONAL WEATHER SERVICE ALBANY NY
300 AM EDT THU MAY 26 2022

NOTE: "FAIR" INDICATES FEW OR NO CLOUDS BELOW 12,000 FEET WITH NO
SIGNIFICANT WEATHER AND/OR NO OBSTRUCTIONS TO VISIBILITY.


NYZ032-033-038>043-046>054-057>066-NYZ062>081-082-084-260800-
EAST

  
CITY           SKY/WX    TMP DP  RH WIND       PRES   REMARKS
ALBANY         CLOUDY    59  46  62 SE13      30.27F                  
GLENS FALLS    MOCLDY    60  49  66 S9        30.26F                  
POUGHKEEPSIE   MOCLDY    54  45  71 E6        30.31F                  
NEWBURGH       CLEAR     54  43  66 CALM      30.34S                  
MONTGOMERY     MOCLDY    51  46  83 CALM      30.30F                  
WHITE PLAINS   MOCLDY    51  45  79 CALM      30.32F                  
ISLIP          MOCLDY    50  47  89 E3        30.33F                  
NEW YORK CITY  MOCLDY    56  44  64 SE8       30.32F                  
CENTRAL PARK   MOCLDY    56  44  64 VRB3      30.35F                  
$$


SKY/WX - Weather  TMP - Temperature  DP - Dew Point  RH - Humidity
WIND - Wind Direction/Speed PRES - Barometric Pressure VSB - Visibility
WCI - Wind Chill Index E13G22 Wind - East Wind 13 mph/Gusts of 22 mph

Trending Headlines

Purling Radar Loop



Purling Quick Facts


National Two Day Weather Forecast


E-mail the Purling Weather Forecast

Voice your opinion or tell us about page issues...